TimeEDT,TemperatureF,Dew PointF,Humidity,Sea Level PressureIn,VisibilityMPH,Wind Direction,Wind SpeedMPH,Gust SpeedMPH,PrecipitationIn,Events,Conditions,WindDirDegrees,DateUTC
12:15 AM,75.2,75.2,100,29.98,10.0,Calm,Calm,-,N/A,,Clear,0,2013-07-26 04:15:00
12:35 AM,75.2,75.2,100,29.98,10.0,Calm,Calm,-,N/A,,Clear,0,2013-07-26 04:35:00
12:55 AM,75.2,75.2,100,29.98,10.0,Calm,Calm,-,N/A,,Clear,0,2013-07-26 04:55:00
1:15 AM,75.2,75.2,100,29.98,9.0,Calm,Calm,-,N/A,,Clear,0,2013-07-26 05:15:00
1:35 AM,75.2,75.2,100,29.97,9.0,Calm,Calm,-,N/A,,Clear,0,2013-07-26 05:35:00
1:55 AM,75.2,75.2,100,29.97,8.0,Calm,Calm,-,N/A,,Clear,0,2013-07-26 05:55:00
2:15 AM,73.4,73.4,100,29.96,5.0,Calm,Calm,-,N/A,,Clear,0,2013-07-26 06:15:00
2:35 AM,73.4,73.4,100,29.96,5.0,Calm,Calm,-,N/A,,Clear,0,2013-07-26 06:35:00
2:55 AM,73.4,73.4,100,29.96,5.0,Calm,Calm,-,N/A,,Clear,0,2013-07-26 06:55:00
3:15 AM,73.4,73.4,100,29.96,5.0,Calm,Calm,-,N/A,,Clear,0,2013-07-26 07:15:00
3:35 AM,73.4,73.4,100,29.96,5.0,Calm,Calm,-,N/A,,Clear,0,2013-07-26 07:35:00
3:55 AM,73.4,73.4,100,29.96,4.0,Calm,Calm,-,N/A,,Clear,0,2013-07-26 07:55:00
4:15 AM,73.4,73.4,100,29.96,4.0,Calm,Calm,-,N/A,,Clear,0,2013-07-26 08:15:00
4:35 AM,73.4,73.4,100,29.96,3.0,Calm,Calm,-,N/A,,Clear,0,2013-07-26 08:35:00
4:55 AM,71.6,71.6,100,29.97,2.5,Calm,Calm,-,N/A,,Clear,0,2013-07-26 08:55:00
5:15 AM,73.4,73.4,100,29.97,2.0,Calm,Calm,-,N/A,,Scattered Clouds,0,2013-07-26 09:15:00
5:35 AM,71.6,71.6,100,29.98,1.8,Calm,Calm,-,N/A,,Scattered Clouds,0,2013-07-26 09:35:00
5:55 AM,71.6,71.6,100,29.98,1.5,Calm,Calm,-,N/A,,Scattered Clouds,0,2013-07-26 09:55:00
6:15 AM,71.6,71.6,100,29.99,2.5,Calm,Calm,-,N/A,,Clear,0,2013-07-26 10:15:00
6:35 AM,71.6,71.6,100,29.99,0.8,Calm,Calm,-,N/A,,Mist,0,2013-07-26 10:35:00
7:50 AM,73.4,73.4,100,30.00,7.0,Calm,Calm,-,N/A,,Clear,0,2013-07-26 11:50:00
8:50 AM,77.0,77.0,100,30.02,7.0,Calm,Calm,-,N/A,,Clear,0,2013-07-26 12:50:00
9:50 AM,82.4,77.0,84,30.02,10.0,Calm,Calm,-,N/A,,Clear,0,2013-07-26 13:50:00
10:50 AM,86.0,75.2,70,30.03,10.0,Calm,Calm,-,N/A,,Scattered Clouds,0,2013-07-26 14:50:00
11:50 AM,86.0,75.2,70,30.03,10.0,Calm,Calm,-,N/A,,Mostly Cloudy,0,2013-07-26 15:50:00
12:50 PM,89.6,75.2,62,30.03,10.0,Calm,Calm,-,N/A,,Scattered Clouds,0,2013-07-26 16:50:00
1:50 PM,89.6,73.4,59,30.01,10.0,NNE,3.5,-,N/A,,Scattered Clouds,20,2013-07-26 17:50:00
2:50 PM,89.6,73.4,59,29.99,10.0,Calm,Calm,-,N/A,,Scattered Clouds,0,2013-07-26 18:50:00
3:50 PM,87.8,75.2,66,29.98,10.0,ESE,6.9,-,N/A,,Scattered Clouds,110,2013-07-26 19:50:00
4:50 PM,89.6,75.2,62,29.98,10.0,East,5.8,-,N/A,,Scattered Clouds,90,2013-07-26 20:50:00
5:50 PM,89.6,73.4,59,29.98,10.0,ENE,3.5,-,N/A,,Partly Cloudy,70,2013-07-26 21:50:00
6:50 PM,86.0,73.4,66,29.97,10.0,ENE,3.5,-,N/A,,Clear,70,2013-07-26 22:50:00
7:50 PM,80.6,73.4,79,29.98,10.0,ENE,3.5,-,N/A,,Clear,60,2013-07-26 23:50:00
8:15 PM,80.6,75.2,84,30.00,10.0,ENE,4.6,-,N/A,,Clear,70,2013-07-27 00:15:00
8:35 PM,80.6,75.2,84,30.01,10.0,Calm,Calm,-,N/A,Thunderstorm,Clear,0,2013-07-27 00:35:00
8:55 PM,80.6,75.2,84,30.01,10.0,Calm,Calm,-,N/A,,Clear,0,2013-07-27 00:55:00
9:15 PM,80.6,75.2,84,30.00,10.0,ESE,3.5,-,N/A,,Clear,110,2013-07-27 01:15:00
9:35 PM,80.6,75.2,84,30.00,10.0,Calm,Calm,-,N/A,,Clear,0,2013-07-27 01:35:00
9:55 PM,80.6,75.2,84,30.01,10.0,Calm,Calm,-,N/A,,Clear,0,2013-07-27 01:55:00
10:15 PM,78.8,75.2,89,30.02,10.0,SSW,3.5,-,N/A,,Clear,200,2013-07-27 02:15:00
10:35 PM,78.8,77.0,94,30.02,10.0,Calm,Calm,-,N/A,,Scattered Clouds,0,2013-07-27 02:35:00
10:55 PM,77.0,75.2,94,30.02,10.0,Calm,Calm,-,N/A,,Partly Cloudy,0,2013-07-27 02:55:00
11:15 PM,77.0,75.2,94,30.03,9.0,Calm,Calm,-,N/A,,Clear,0,2013-07-27 03:15:00
11:35 PM,77.0,77.0,100,30.03,8.0,Calm,Calm,-,N/A,,Scattered Clouds,0,2013-07-27 03:35:00
11:55 PM,77.0,75.2,94,30.02,6.0,Calm,Calm,-,N/A,,Mostly Cloudy,0,2013-07-27 03:55:00